{"data":{"norad_id":45406,"intl_designator":"2020-019AY","name":"STARLINK-1265","alt_names":[],"object_type":"PAYLOAD","status":"ACTIVE","operator":null,"country":"US","launch_date":"2020-03-18","launch_site_code":"AFETR","launch_vehicle":null,"mission":null,"orbit_class":"UNKNOWN","rcs_meters":null,"size_class":null,"mass_kg":null,"dimensions":null,"purposes":["comms"],"wikipedia_slug":null,"has_3d_model":false,"image_url":null,"decayed_at":null,"tle_current":{"epoch":"2026-05-25T05:29:08.471328Z","epoch_age_seconds":49148,"freshness":"FRESH","line1":"1 45406U 20019AY  26145.22857027  .00046339  00000+0  12799-2 0  9996","line2":"2 45406  53.1559 132.1770 0005528  29.0666 331.0644 15.36614893341712","mean_motion":15.36614893,"eccentricity":0.0005528,"inclination_deg":53.1559,"raan_deg":132.177,"arg_perigee_deg":29.0666,"mean_anomaly_deg":331.0644,"bstar":0.0012799,"rev_number":34171,"period_min":93.712484927738,"perigee_km":452.35003850045,"apogee_km":459.90600190679,"semimajor_km":6834.2650202036,"source":"CELESTRAK","updated_at":"2026-05-25T13:38:16.419157Z"}}}